Weather History for New Orleans NAS, LA

Change the Weather History Date:

Wednesday, September 12, 2012

  Actual Average Record
Temperature  
Mean Temperature 78 °F -  
Max Temperature 88 °F 86 °F 93 °F (2010)
Min Temperature 69 °F 70 °F 64 °F (2011)
Cooling Degree Days 13    
Growing Degree Days 28 (Base 50)    
Moisture  
Dew Point 70 °F    
Average Humidity 76    
Maximum Humidity 94    
Minimum Humidity 53    
Precipitation  
Precipitation 0.00 in - - ()
Sea Level Pressure  
Sea Level Pressure 30.10 in    
Wind  
Wind Speed 5 mph (ESE)    
Max Wind Speed 14 mph    
Max Gust Speed 20 mph    
Visibility 9 miles    
Events Fog , Rain    
Averages and records for this station are not official NWS values.
T = Trace of Precipitation, MM = Missing Value Source: NWS Daily Summary

Daily Weather History Graph

Daily Weather History Graph

Search for Another Location

Airport:

Trip Planner

Search our weather history database for the weather conditions in past years. The results will help you decide how hot, cold, wet, or windy it might be!

Date:

Astronomy

Sep. 12, 2012 Rise Set
Actual Time 6:43 AM CDT 7:08 PM CDT
Civil Twilight 6:19 AM CDT 7:32 PM CDT
Nautical Twilight 5:51 AM CDT 8:00 PM CDT
Astronomical Twilight 5:22 AM CDT 8:28 PM CDT
Moon 3:13 AM CDT (9/12) 4:45 PM CDT (9/12)
Length of Visible Light 13h 12m
Length of Day
12h 25m
Waning Crescent, 13% of the Moon is Illuminated
Sep 12
Waning Crescent
Sep 15
New
Sep 22
First Quarter
Sep 29
Full
Oct 8
Last Quarter

Hourly Weather History & Observations

Time (CDT) Temp. Heat Index Dew Point Humidity Pressure Visibility Wind Dir Wind Speed Gust Speed Precip Events Conditions
12:55 AM 73.9 °F - 69.1 °F 85% 30.10 in 10.0 mi East 4.6 mph - N/A   Clear
1:55 AM 73.9 °F - 70.0 °F 87% 30.09 in 10.0 mi NE 3.5 mph - N/A   Clear
2:55 AM 73.9 °F - 70.0 °F 87% 30.08 in 10.0 mi East 3.5 mph - N/A   Scattered Clouds
3:55 AM 72.0 °F - 69.1 °F 91% 30.07 in 9.0 mi Calm Calm - N/A   Clear
4:55 AM 71.1 °F - 69.1 °F 93% 30.07 in 6.0 mi Calm Calm - N/A   Clear
5:40 AM 71.6 °F - 68.0 °F 88% 30.08 in 3.0 mi Calm Calm - N/A   Clear
5:51 AM 71.6 °F - 68.0 °F 88% 30.09 in 1.8 mi Calm Calm - N/A   Partly Cloudy
5:55 AM 70.0 °F - 68.0 °F 93% 30.09 in 1.8 mi Calm Calm - N/A   Partly Cloudy
6:11 AM 69.8 °F - 68.0 °F 94% 30.10 in 7.0 mi Calm Calm - N/A Fog Shallow Fog
6:55 AM 70.0 °F - 68.0 °F 93% 30.11 in 5.0 mi Calm Calm - 0.00 in   Scattered Clouds
7:55 AM 75.9 °F - 72.0 °F 87% 30.12 in 7.0 mi Calm Calm - N/A   Scattered Clouds
8:55 AM 80.1 °F 82.9 °F 69.1 °F 69% 30.12 in 10.0 mi SSE 4.6 mph - N/A   Scattered Clouds
9:55 AM 82.9 °F 86.5 °F 69.1 °F 63% 30.13 in 10.0 mi Variable 5.8 mph - N/A   Mostly Cloudy
10:55 AM 84.9 °F 87.1 °F 66.0 °F 53% 30.15 in 10.0 mi SE 5.8 mph - N/A   Scattered Clouds
11:55 AM 87.1 °F 91.3 °F 69.1 °F 55% 30.14 in 10.0 mi SE 5.8 mph - N/A   Scattered Clouds
12:55 PM 84.9 °F 90.1 °F 71.1 °F 63% 30.12 in 10.0 mi East 10.4 mph - N/A   Mostly Cloudy
1:55 PM 84.9 °F 90.7 °F 72.0 °F 65% 30.10 in 10.0 mi East 10.4 mph - N/A   Mostly Cloudy
2:02 PM 84.2 °F 90.9 °F 73.4 °F 70% 30.10 in 10.0 mi East 11.5 mph - 0.00 in Rain Light Rain
2:55 PM 82.9 °F 89.4 °F 73.9 °F 74% 30.08 in 10.0 mi East 8.1 mph - 0.00 in   Mostly Cloudy
3:37 PM 84.2 °F 89.6 °F 71.6 °F 66% 30.07 in 10.0 mi East 13.8 mph - 0.00 in Rain Light Rain
3:55 PM 81.0 °F 85.8 °F 73.0 °F 77% 30.06 in 10.0 mi East 6.9 mph - 0.00 in   Mostly Cloudy
4:55 PM 82.9 °F 87.0 °F 70.0 °F 65% 30.06 in 10.0 mi ESE 8.1 mph - N/A   Mostly Cloudy
5:55 PM 82.9 °F 87.0 °F 70.0 °F 65% 30.08 in 10.0 mi SE 8.1 mph - N/A   Mostly Cloudy
6:16 PM 80.6 °F 84.6 °F 71.6 °F 74% 30.08 in 10.0 mi ESE 6.9 mph - 0.00 in Rain Light Rain
6:47 PM 80.6 °F 84.6 °F 71.6 °F 74% 30.08 in 10.0 mi East 8.1 mph - 0.00 in   Mostly Cloudy
6:55 PM 81.0 °F 84.9 °F 71.1 °F 72% 30.08 in 10.0 mi East 9.2 mph 17.3 mph 0.00 in   Mostly Cloudy
7:55 PM 80.1 °F 83.6 °F 71.1 °F 74% 30.09 in 10.0 mi East 10.4 mph - N/A   Mostly Cloudy
8:55 PM 79.0 °F - 70.0 °F 74% 30.10 in 10.0 mi ESE 10.4 mph - N/A   Mostly Cloudy
9:55 PM 79.0 °F - 69.1 °F 72% 30.11 in 10.0 mi ESE 8.1 mph - N/A   Mostly Cloudy
10:55 PM 79.0 °F - 71.1 °F 77% 30.11 in 10.0 mi ESE 13.8 mph 19.6 mph N/A   Mostly Cloudy
11:55 PM 80.1 °F 83.8 °F 72.0 °F 76% 30.12 in 10.0 mi ESE 9.2 mph - N/A   Scattered Clouds